STARLINK-1361, 45567

Orbit data source: Space-Track

STARLINK-1361, 45567 is a payload satellite owned by SpaceX/Seattle (US) in LEO that was launched on Wed, 22 Apr 2020 UTC via an FALCON 9 launch vehicle from the Air Force Eastern Test Range (AFETR). Payload-class satellites include a variety of spacecraft equipped with specific instruments for various scientific and technological missions. These include communications satellites like Starlink; space stations such as the ISS; scientific satellites like the Hubble; Earth observation satellites from companies like Planet Labs, Umbra, and HawkEye 360; GPS; miniature CubeSats for education and research; and military/defense satellites.

Loading next visibility...
Identifier
45567, 2020-025AN
Orbit
LEO
Last TLE update
1 day ago
Origin
Manufacturer
SpaceX/Seattle
Mission
Operational Commercial Communications
Bus & Motor
STARLINK, Unknown motor
Mass
260 kg wet, ~248 kg dry
Launch date (UTC)
2020-04-22 (5 years ago)
Launch vehicle
FALCON 9
Launch site
Air Force Eastern Test Range (AFETR)
Object type
Payload
Rocket body
Debris
Shape & HBR
Box + 1 Pan, 8.86 m
Radar Cross Section
13.562 m², Large (>1 m²)

Expand to show TLE details & history

TLE from 1 day ago
0 STARLINK-1361
1 45567U 20025AN  25128.09819939  .00004448  00000-0  31730-3 0  9999
2 45567  53.0558  18.4743 0001217  90.6860 269.4268 15.06401024279314
Epoch: 2025-05-08T02:21Z
Definitive object data (Epoch: 2025-05-08T02:21:24.427Z)
Latitude
-0.00005°
Longitude
116.94891°
Altitude
548.096 km
Speed
7.589 km/s
True Right ascension
01h 13m 53s
True Declination
0° 00' 00"
Sunlit
Object was in daylight at TLE epoch
Visualization TLE readout
Latitude
13.52243°
Longitude
121.9344°
Altitude
547.118 km
Speed
7.591 km/s
Apparent Right ascension
02h 16m 06s
Apparent Declination
-12° 13' 27"
Sunlit
Object is in daylight
Visualization observer readout
Local Sidereal Time
15:14:32
Azimuth
29.007° NE
Elevation
-59.456°
Doppler factor
1
Orbital elements
Apogee altitude
548.322 km
Perigee altitude
546.636 km
Semi-major axis
6,925.616 km
Eccentricity
0.0001217
Inclination
53.0558°
RAAN
18.4743°
Arg. of periapsis
90.686°
True anomaly
269.41285°
Mean anomaly
269.4268°
Eccentric anomaly
269.41983°
Mean motion
3.76579 °/min
BSTAR
0.0003173
Orbital period
95.6 mins
Loading maneuver chart data...
Loading SW <> Apogee altitude chart data...
Loading historical data...
Loading historical data...
Loading historical data...
Loading historical data...
Loading historical data...
Loading historical data...
Loading historical data...

STARLINK-1361 Visibility forecast

Observer location: undefined°, undefined°

Span
Click to sort rows by Start time (UTC) header in descending order
Start Az.
Max El. time (UTC)
Max El. Az.
Max El.
End time (UTC)
End Az.
7 mins2025-05-09 18:18:35.533Z198.361° SSW2025-05-09 18:22:35.533Z122.462° SE29.721°2025-05-09 18:25:35.533Z68.904° E
5 mins2025-05-09 19:59:35.533Z274.87° WNW2025-05-09 20:01:35.533Z321.65° NNW30.189°2025-05-09 20:04:35.533Z29.806° NE
5 mins2025-05-10 01:01:35.533Z336.692° NNW2025-05-10 01:03:35.533Z30.253° NE32.432°2025-05-10 01:06:35.533Z96.775° ESE
6 mins2025-05-10 02:40:35.533Z281.275° WNW2025-05-10 02:42:35.533Z242.76° WSW26.529°2025-05-10 02:46:35.533Z166.999° S
|